Regional Weather Roundup
Issued by NWS

Home | Current Version | Previous Version | Graphics & Text | Print | Product List | Glossary On
Versions: 1 2 3 4 5 6 7 8 9 10 11 12 13 14 15 16 17 18 19 20 21 22 23 24 25 26 27 28 29 30 31 32 33 34 35 36 37 38 39 40 41 42 43 44 45 46 47 48 49 50
000
ASUS43 KMPX 110610
RWRMN
WEATHER ROUNDUP FOR MINNESOTA
NATIONAL WEATHER SERVICE TWIN CITIES/CHANHASSEN MN
100 AM CDT FRI JUL 11 2014


NOTE: "FAIR" INDICATES FEW OR NO CLOUDS BELOW 12,000 FEET WITH NO
SIGNIFICANT WEATHER AND/OR OBSTRUCTIONS TO VISIBILITY. N/A MEANS
CURRENT SKY AND/OR WEATHER CONDITIONS ARE NOT AVAILABLE.

MNZ060>063-068>070-110700-
   Twin Cities Metro

CITY           SKY/WX    TMP DP  RH WIND       PRES   REMARKS
TWIN CITIES    CLOUDY    75  59  57 S13G22    30.00R
6HR MIN TEMP:  75; 6HR MAX TEMP:  82;

ST PAUL        MOCLDY    73  60  63 S14       30.00R
CRYSTAL        MOCLDY    76  58  53 S10G20    29.98R
BLAINE         MOCLDY    75  61  60 S9        29.99S
LAKEVILLE      LGT RAIN  70  61  73 S12G21    30.00F
EDEN PRAIRIE   CLOUDY    74  60  61 S12G21    29.99R
6HR MIN TEMP:  73; 6HR MAX TEMP:  81; 6HR PCP: TRACE;

SOUTH ST PAUL  CLOUDY    74  59  59 S15       30.00S
LAKE ELMO      FAIR      72  61  68 S9        30.03R
$$
MNZ001>005-007-008-013>017-022>024-027-028-110700-
   Northwest Minnesota

CITY           SKY/WX    TMP DP  RH WIND       PRES   REMARKS
BEMIDJI        RAIN      66  65  96 S8        29.90F
HALLOCK        MOCLDY    70  64  83 S12       29.81S
ROSEAU         PTCLDY    66  61  82 S6        29.85S
WARROAD        CLEAR     68  64  88 S6        29.86S
THIEF RVR FALL   N/A    N/A N/A N/A MISG        N/A
CROOKSTON      PTCLDY    66  64  94 SE6       29.83F
FOSSTON        CLEAR     66  63  88 SE8       29.87S
DETROIT LAKES  PTCLDY    70  66  88 S9        29.88F
MOORHEAD       PTCLDY    72  72 100 SE9       29.83F
PARK RAPIDS    CLOUDY    68  67  96 SE8       29.91F
$$
MNZ006-009>011-018-025>026-110700-
   North Central Minnesota

CITY           SKY/WX    TMP DP  RH WIND       PRES   REMARKS
BAUDETTE       PTCLDY    67  61  81 S8        29.88F
FLAG ISLAND    CLEAR     70  63  78 S13       29.84R
INTL FALLS     CLOUDY    65  61  87 CALM      29.91R
6HR MIN TEMP:  64; 6HR MAX TEMP:  74; 6HR PCP:  0.08;

WASKISH        MOCLDY    70  64  83 S5        29.90S
BIG FORK       CLOUDY    68  63  83 S1        29.94R
LONGVILLE      LGT RAIN  66  66 100 SE7       29.93F
GRAND RAPIDS   CLOUDY    66  64  94 S12       29.97S
CRANE LAKE     MOCLDY    64  59  82 SE3       29.95S
ORR            CLOUDY    66  57  72 S6        29.93R
COOK           CLOUDY    68  61  77 S6        29.97R
$$
MNZ012-019>021-037-110700-
   Northeast Minnesota

CITY           SKY/WX    TMP DP  RH WIND       PRES   REMARKS
DULUTH         CLOUDY    62  53  72 SE7       30.00R
6HR MIN TEMP:  61; 6HR MAX TEMP:  69;

ELY            MOCLDY    63  54  72 S3        29.98F
HIBBING        LGT RAIN  69  59  70 S5        29.97R
EVELETH        RAIN      64  57  77 S5        29.99R
DULUTH HARBOR  MOCLDY    55  50  82 NE8       30.00S
TWO HARBORS    MOCLDY    57  52  82 CALM      29.99R
SILVER BAY     PTCLDY    55  55 100 CALM      29.99S
GRAND MARAIS     N/A     49  46  90 CALM      30.00F
G MARAIS ARPRT MOCLDY    52  46  82 CALM      30.05S
$$
MNZ029>031-032-039>041-046>048-054>057-064-110700-
   West Central Minnesota

CITY           SKY/WX    TMP DP  RH WIND       PRES   REMARKS
FERGUS FALLS   CLOUDY    70  66  88 S9        29.84F
WHEATON        PTCLDY    72  64  78 S14G22    29.83F
MORRIS         PTCLDY    72  66  83 S14G21    29.85F
ALEXANDRIA     TSTM      70  66  87 SE17G25   29.89F FOG
WADENA         TSTM      68  66  94 S8        29.90F
GLENWOOD       MOCLDY    73  64  73 S14       29.92S THUNDER
APPLETON       PTCLDY    75  64  69 S12G18    29.87F
BENSON         MOCLDY    73  64  73 S14       29.89S
ORTONVILLE     PTCLDY    72  64  78 S7        29.86F
MADISON        MOCLDY    77  66  69 S10       29.88F
WILLMAR        FAIR      73  61  64 SE13      29.94F
$$
MNZ033>034-036-042>043-049>051-058-059-110700-
   Central Minnesota

CITY           SKY/WX    TMP DP  RH WIND       PRES   REMARKS
ST CLOUD       CLOUDY    76  59  55 S15G24    29.95S
6HR MIN TEMP:  75; 6HR MAX TEMP:  81;

SAUK CENTRE    CLOUDY    71  64  76 S13G18    29.92F
PAYNESVILLE    HVY RAIN  70  60  70 SE14G20   29.94F
AITKIN         LGT RAIN  70  64  83 S5        29.96S
PINE RIVER     RAIN      66  66 100 SE6       29.97F
BRAINERD       LGT RAIN  72  64  76 SE5       29.95F
STAPLES        CLOUDY    66  64  94 SE3       29.91F
LONG PRAIRIE   LGT RAIN  68  64  88 SE13      29.92F
LITTLE FALLS   RAIN      70  61  73 SE8       29.93F
LITCHFIELD     CLOUDY    73  61  64 S6        29.97S
BUFFALO        LGT RAIN  72  60  66 S10G17    29.99S
MAPLE LAKE     RAIN      72  64  75 S8        29.98S
$$
MNZ037-044-045-052-053-110700-
   East Central Minnesota

CITY           SKY/WX    TMP DP  RH WIND       PRES   REMARKS
PRINCETON      CLOUDY    73  61  64 S10G16    29.97S
MORA           CLOUDY    70  59  68 CALM      30.00R
CAMBRIDGE      MOCLDY    77  61  57 S12       29.96S
RUSH CITY      MOCLDY    73  59  62 S9        29.98S
MOOSE LAKE     LGT RAIN  64  61  88 NE3       29.98R
HINCKLEY       MOCLDY    72  61  68 S6        29.99R
CLOQUET        RAIN      59  54  82 CALM      30.00R
MCGREGOR       CLOUDY    68  64  88 SE3       29.99S
$$
MNZ071>073-080-081-089-090-097-098-110700-
   Southwest Minnesota

CITY           SKY/WX    TMP DP  RH WIND       PRES   REMARKS
MONTEVIDEO     MOCLDY    73  64  73 SW12G18   29.91F
GRANITE FALLS  CLOUDY    74  64  69 S16       29.94S
CANBY          MOCLDY    76  65  70 S12G22    29.90F
MARSHALL       CLOUDY    73  64  73 S15       29.92F
REDWOOD FALLS  CLOUDY    75  61  61 S20       29.95R
OLIVIA         CLOUDY    73  63  68 S10       29.94F
PIPESTONE      CLOUDY    72  64  78 S18G25    29.94F
WINDOM         CLOUDY    73  59  60 S14G22    29.98S
WORTHINGTON    CLOUDY    72  63  73 S16G25    30.00R
JACKSON        CLOUDY    72  57  60 S15       30.01S
TRACY          CLOUDY    74  64  71 S14G20    29.95S
SLAYTON        CLOUDY    72  63  74 S14G23    29.97F
$$
MNZ065>067-074>077-082>085-091>093-110700-
   South Central Minnesota

CITY           SKY/WX    TMP DP  RH WIND       PRES   REMARKS
MANKATO        CLOUDY    73  55  53 S10G17    30.01S
NEW ULM        CLOUDY    73  61  64 S14       29.98R
ST JAMES       CLOUDY    73  61  64 S16G22    30.00R
FAIRMONT       CLOUDY    72  57  60 S14       30.01F
GLENCOE        CLOUDY    72  61  67 S6        29.98R
FARIBAULT      CLOUDY    73  55  53 S9        30.04S
OWATONNA       CLOUDY    72  59  64 S12       30.05R
WASECA         CLOUDY    72  54  53 S13       30.05S
ALBERT LEA     CLOUDY    72  57  60 S15G23    30.05R
$$
MNZ078>079-086>088-094>096-110700-
   Southeast Minnesota

CITY           SKY/WX    TMP DP  RH WIND       PRES   REMARKS
ROCHESTER      MOCLDY    69  58  67 S14       30.08R
6HR MIN TEMP:  67; 6HR MAX TEMP:  76;

RED WING       MOCLDY    73  57  56 S3        30.03S
STANTON        CLOUDY    73  58  60 S8        30.02R
DODGE CENTER   CLOUDY    72  59  64 S15G21    30.06S
WINONA         CLEAR     70  59  68 S3        30.07S
AUSTIN         CLOUDY    70  57  64 S10G17    30.07R
PRESTON        PTCLDY    68  59  72 S13       30.09F
$$
ABBREVIATIONS USED IN REMARKS
   TC - TEMPERATURES IN CELSIUS
  WCI - WIND CHILL INDEX
   HX - HEAT INDEX
  VSB - VISIBILITY
$$



USA.gov is the U.S. government's official web portal to all federal, state and local government web resources and services.